De Ridder, LA

9:19 PM CDT on April 28, 2017 (GMT -0500)
Beauregard Parish

Weather History for KDRI - February, 2013

Change the Weather History Date:

Wednesday, February 6, 2013

  Actual Average (KPOE) Record (KPOE)
Temperature  
Mean Temperature 56 °F -  
Max Temperature 60 °F 59 °F 76 °F (2017)
Min Temperature 53 °F 41 °F 28 °F (2000)
Degree Days  
Heating Degree Days 8    
Growing Degree Days 6 (Base 50)    
Moisture  
Dew Point 55 °F    
Average Humidity 90    
Maximum Humidity 94    
Minimum Humidity 82    
Precipitation  
Precipitation 0.68 in - - ()
Sea Level Pressure  
Sea Level Pressure 30.03 in    
Wind  
Wind Speed 2 mph (East)    
Max Wind Speed 10 mph    
Max Gust Speed 16 mph    
Visibility 5 miles    
Events Rain    
Averages and records for this station are not official NWS values.
T = Trace of Precipitation, MM = Missing Value Source: NWS Daily Summary

Daily Weather History Graph

Daily Weather History Graph

Search for Another Location

Airport or City:

Trip Planner

Search our weather history database for the weather conditions in past years. The results will help you decide how hot, cold, wet, or windy it might be!

Date:

Astronomy

Feb. 06, 2013 Rise Set
Actual Time 7:01 AM CST 5:53 PM CST
Civil Twilight 6:36 AM CST 6:18 PM CST
Nautical Twilight 6:07 AM CST 6:47 PM CST
Astronomical Twilight 5:39 AM CST 7:15 PM CST
Moon 3:38 AM CST (2/6) 2:20 PM CST (2/6)
Length of Visible Light 11h 42m
Length of Day
10h 52m
Waning Crescent, 17% of the Moon is Illuminated
Feb 6
Waning Crescent
Feb 10
New
Feb 17
First Quarter
Feb 25
Full
Mar 4
Last Quarter

Hourly Weather History & Observations

Time (CST) Temp. Dew Point Humidity Pressure Visibility Wind Dir Wind Speed Gust Speed Precip Events Conditions
12:15 AM 55.4 °F 53.6 °F 94% 30.05 in 5.0 mi Calm Calm - N/A   Scattered Clouds
12:35 AM 55.4 °F 53.6 °F 94% 30.06 in 3.0 mi Calm Calm - N/A   Scattered Clouds
12:55 AM 55.4 °F 51.8 °F 88% 30.05 in 5.0 mi Calm Calm - N/A   Mostly Cloudy
1:15 AM 55.4 °F 53.6 °F 94% 30.05 in 5.0 mi ENE 4.6 mph - N/A   Overcast
1:55 AM 55.4 °F 53.6 °F 94% 30.05 in 5.0 mi ENE 3.5 mph - N/A   Overcast
2:15 AM 55.4 °F 53.6 °F 94% 30.04 in 5.0 mi Calm Calm - N/A   Overcast
2:35 AM 55.4 °F 53.6 °F 94% 30.06 in 5.0 mi Calm Calm - N/A   Overcast
2:55 AM 53.6 °F 51.8 °F 94% 30.05 in 4.0 mi ENE 3.5 mph - N/A   Overcast
3:15 AM 53.6 °F 51.8 °F 94% 30.05 in 4.0 mi East 3.5 mph - N/A   Overcast
3:35 AM 53.6 °F 51.8 °F 94% 30.05 in 4.0 mi Calm Calm - N/A   Overcast
3:55 AM 53.6 °F 51.8 °F 94% 30.06 in 4.0 mi Calm Calm - N/A   Overcast
4:15 AM 53.6 °F 51.8 °F 94% 30.06 in 5.0 mi Calm Calm - N/A   Overcast
4:35 AM 53.6 °F 51.8 °F 94% 30.07 in 4.0 mi Calm Calm - N/A   Overcast
4:55 AM 53.6 °F 51.8 °F 94% 30.07 in 2.5 mi East 4.6 mph - N/A   Overcast
5:15 AM 53.6 °F 51.8 °F 94% 30.07 in 1.0 mi ENE 4.6 mph - N/A   Overcast
5:35 AM 53.6 °F 51.8 °F 94% 30.08 in 1.8 mi East 3.5 mph - N/A   Overcast
5:55 AM 53.6 °F 51.8 °F 94% 30.08 in 3.0 mi ENE 3.5 mph - N/A   Overcast
6:15 AM 53.6 °F 51.8 °F 94% 30.10 in 4.0 mi Calm Calm - N/A   Overcast
6:35 AM 53.6 °F 51.8 °F 94% 30.09 in 4.0 mi ENE 3.5 mph - N/A   Overcast
6:55 AM 53.6 °F 51.8 °F 94% 30.09 in 4.0 mi Calm Calm - N/A   Overcast
7:15 AM 53.6 °F 51.8 °F 94% 30.09 in 3.0 mi Calm Calm - N/A   Overcast
7:35 AM 53.6 °F 51.8 °F 94% 30.09 in 3.0 mi ENE 3.5 mph - N/A   Overcast
7:55 AM 53.6 °F 51.8 °F 94% 30.09 in 4.0 mi Calm Calm - N/A   Overcast
8:15 AM 53.6 °F 51.8 °F 94% 30.09 in 4.0 mi Calm Calm - N/A   Overcast
8:35 AM 55.4 °F 53.6 °F 94% 30.08 in 4.0 mi ENE 5.8 mph - N/A   Overcast
8:55 AM 55.4 °F 53.6 °F 94% 30.08 in 4.0 mi East 5.8 mph - N/A   Overcast
9:15 AM 55.4 °F 53.6 °F 94% 30.10 in 5.0 mi Calm Calm - N/A   Overcast
9:35 AM 55.4 °F 53.6 °F 94% 30.11 in 5.0 mi Calm Calm - N/A   Overcast
9:55 AM 57.2 °F 53.6 °F 88% 30.10 in 5.0 mi ESE 5.8 mph - N/A   Overcast
10:15 AM 57.2 °F 53.6 °F 88% 30.11 in 7.0 mi ESE 3.5 mph - N/A   Overcast
10:35 AM 59.0 °F 53.6 °F 82% 30.12 in 7.0 mi Calm Calm - N/A   Overcast
10:55 AM 59.0 °F 55.4 °F 88% 30.11 in 7.0 mi Calm Calm - N/A   Overcast
11:15 AM 59.0 °F 55.4 °F 88% 30.09 in 7.0 mi East 4.6 mph - N/A   Overcast
11:35 AM 59.0 °F 55.4 °F 88% 30.09 in 7.0 mi East 4.6 mph - N/A Rain Light Rain
11:55 AM 60.8 °F 55.4 °F 82% 30.07 in 7.0 mi East 5.8 mph - N/A   Light Drizzle
12:15 PM 60.8 °F 57.2 °F 88% 30.07 in 10.0 mi East 4.6 mph - N/A   Scattered Clouds
12:35 PM 60.8 °F 55.4 °F 82% 30.05 in 7.0 mi ENE 4.6 mph - N/A   Mostly Cloudy
12:55 PM 60.8 °F 57.2 °F 88% 30.04 in 7.0 mi Calm Calm - N/A Rain Light Rain
1:15 PM 60.8 °F 57.2 °F 88% 30.04 in 5.0 mi Calm Calm - N/A Rain Rain
1:35 PM 60.8 °F 57.2 °F 88% 30.02 in 5.0 mi ENE 4.6 mph - 0.01 in   Drizzle
1:55 PM 60.8 °F 59.0 °F 94% 30.00 in 5.0 mi ENE 4.6 mph - 0.01 in Rain Rain
2:15 PM 60.8 °F 59.0 °F 94% 29.99 in 5.0 mi Calm Calm - N/A   Light Drizzle
2:35 PM 60.8 °F 59.0 °F 94% 29.99 in 5.0 mi ENE 3.5 mph - N/A   Mostly Cloudy
2:55 PM 60.8 °F 59.0 °F 94% 30.02 in 5.0 mi SE 3.5 mph - N/A   Overcast
3:15 PM 60.8 °F 59.0 °F 94% 30.04 in 3.0 mi SSE 3.5 mph - 0.01 in Rain Light Rain
3:35 PM 60.8 °F 59.0 °F 94% 30.04 in 3.0 mi Calm Calm - 0.03 in Rain Rain
3:55 PM 60.8 °F 59.0 °F 94% 30.04 in 1.8 mi Calm Calm - 0.07 in Rain Rain
4:15 PM 60.8 °F 59.0 °F 94% 30.04 in 1.5 mi Calm Calm - 0.05 in Rain Rain
4:35 PM 60.8 °F 59.0 °F 94% 30.01 in 1.0 mi Calm Calm - 0.12 in Rain Rain
4:55 PM 60.8 °F 59.0 °F 94% 30.00 in 1.5 mi East 5.8 mph - 0.23 in Rain Heavy Rain
5:15 PM 60.8 °F 59.0 °F 94% 30.00 in 2.0 mi ESE 4.6 mph - 0.04 in Rain Rain
5:35 PM 60.8 °F 59.0 °F 94% 30.00 in 1.8 mi East 5.8 mph - 0.09 in Rain Rain
5:55 PM 60.8 °F 59.0 °F 94% 29.98 in 1.8 mi East 6.9 mph - 0.17 in Rain Rain
6:15 PM 60.8 °F 59.0 °F 94% 29.98 in 3.0 mi East 5.8 mph - 0.06 in Rain Rain
6:35 PM 60.8 °F 57.2 °F 88% 29.96 in 3.0 mi ESE 9.2 mph - 0.15 in Rain Heavy Rain
6:55 PM 59.0 °F 55.4 °F 88% 29.94 in 7.0 mi East 5.8 mph 16.1 mph 0.19 in Rain Light Rain
7:15 PM 60.8 °F 57.2 °F 88% 29.96 in 7.0 mi East 3.5 mph - N/A Rain Rain
7:35 PM 60.8 °F 55.4 °F 82% 29.95 in 7.0 mi East 3.5 mph - N/A Rain Light Rain
7:55 PM 60.8 °F 57.2 °F 88% 29.95 in 7.0 mi East 5.8 mph 16.1 mph 0.01 in   Overcast
8:15 PM 59.0 °F 55.4 °F 88% 29.94 in 7.0 mi East 5.8 mph - N/A   Overcast
8:35 PM 60.8 °F 55.4 °F 82% 29.96 in 7.0 mi ESE 3.5 mph - N/A   Overcast
8:55 PM 60.8 °F 55.4 °F 82% 29.97 in 7.0 mi East 5.8 mph - N/A   Overcast
9:15 PM 60.8 °F 55.4 °F 82% 29.97 in 10.0 mi ESE 4.6 mph - N/A   Overcast
9:35 PM 60.8 °F 55.4 °F 82% 29.98 in 10.0 mi ESE 8.1 mph - N/A   Overcast
9:55 PM 60.8 °F 55.4 °F 82% 29.98 in 10.0 mi SE 10.4 mph - N/A   Overcast
10:15 PM 60.8 °F 55.4 °F 82% 29.96 in 7.0 mi East 5.8 mph - N/A   Overcast
10:35 PM 60.8 °F 55.4 °F 82% 29.97 in 10.0 mi East 4.6 mph - N/A   Overcast
10:55 PM 59.0 °F 55.4 °F 88% 29.96 in 10.0 mi East 3.5 mph - N/A   Overcast
11:15 PM 59.0 °F 55.4 °F 88% 29.97 in 10.0 mi ESE 3.5 mph - N/A   Overcast
11:35 PM 59.0 °F 55.4 °F 88% 29.97 in 10.0 mi East 5.8 mph - N/A   Overcast
11:55 PM 59.0 °F 53.6 °F 82% 29.96 in 10.0 mi East 3.5 mph - N/A   Overcast